EYVIUMKK

Guest
Details From EYVI - VILNIUS INTL
To UMKK - KHRABROVO
Flight Number -
Tags generated
Created
Modified
Stats Distance 164 nm / 303 km
Max Altitude 18,300 ft / 5,578 m
Waypoints 3
Social Downloads 0
Likes 0
Share VATSIM

Download

Looking for another format? Having issues loading an existing format? Contact us
Advertisement - Login to hide

Notes

Basic altitude profile: - Ascent Rate: 2500ft/min - Ascent Speed: 250kts - Cruise Altitude: 35000ft - Cruise Speed: 420kts - Descent Rate: 1500ft/min - Descent Speed: 250kts Options: - Use NATs: yes - Use PACOTS: yes - Use low airways: yes - Use high airways: yes

Route

EYVI VAKAL UMKK

ID Type Via Altitude Latitude Longitude Leg Dist Tot Dist Heading (true) Name
O EYVI APT - 0 ft / 0 m 54.63417˚ 25.28580˚ - 0 nm - VILNIUS INTL
VAKAL FIX - 18,300 ft / 5,578 m 54.86972˚ 23.20806˚ 73 nm 73 nm 282° / 280° -
O UMKK APT - 0 ft / 0 m 54.89005˚ 20.59264˚ 90 nm 163 nm 272° / 270° KHRABROVO

Altitude Profile

Advertisement - Login to hide

Weather


0- 5 10 15 20 25 30 35+ Temperature / ° C

Clouds and Precipitation
Forecast for 2017-05-27 00:00 UTC. Updated an hour ago

Ground ~20,000 ft ~40,000 ft Winds

EYVI

Details ICAO EYVI (VNO)
Name VILNIUS INTL
Region Lithuania
Timezone Europe/Vilnius (UTC+3.0)
Stats Elevation 646 ft / 197 m (AMSL)
Location 54.634166° 25.285796°
Runways 1
Magnetic Variation 7.397° E

METAR

EYVI 270020Z 35005KT CAVOK 08/04 Q1019 NOSIG

Decode

TAF

TAF EYVI 261700Z 2618/2718 34008KT 9000 BKN025 TEMPO 2702/2706 BKN003 TEMPO 2708/2714 34018KT

Decode

Departure Runways

ID Width Length Bearing (true) Bearing (mag) Surface Threshold Offset Overrun Length
02 164 ft / 50 m 8,210 ft / 2,502 m 21.89° 14.49° Asphalt 0 ft / 0 m 151 ft / 46 m
20 164 ft / 50 m 8,210 ft / 2,502 m 201.91° 194.51° Asphalt 0 ft / 0 m 0 ft / 0 m

UMKK

Details ICAO UMKK (KGD)
Name KHRABROVO
Region Belarus and Russia (Kaliningrad Oblast)
Timezone Europe/Kaliningrad (UTC+2.0)
Stats Elevation 42 ft / 13 m (AMSL)
Location 54.890049° 20.592635°
Runways 1
Magnetic Variation 6.091° E

METAR

UMKK 270000Z 36003MPS 320V030 CAVOK 11/09 Q1022 R24/60D NOSIG RMK QFE765/1020

Decode

TAF

TAF UMKK 262300Z 2700/2724 33003G08MPS 9999 SCT030 TEMPO 2700/2706 4000 BR SCT004 TEMPO 2712/2717 27005MPS BECMG 2717/2719 24003G08MPS

Decode

Destination Runways

ID Width Length Bearing (true) Bearing (mag) Surface Threshold Offset Overrun Length
06 148 ft / 45 m 8,180 ft / 2,493 m 65.93° 59.84° Concrete 0 ft / 0 m 0 ft / 0 m
24 148 ft / 45 m 8,180 ft / 2,493 m 245.96° 239.87° Concrete 0 ft / 0 m 0 ft / 0 m

Approach Navaids

Runway Type Ident Frequency Range Bearing (true) Bearing (mag) Slope Elevation
24 Localiser IKR 109.50 MHz 18 nm / 33 km 245.00° 238.91° - 42 ft / 13 m (AMSL)
24 Glidescope IKR 109.50 MHz 10 nm / 19 km 245.95° 239.86° 2.70° 42 ft / 13 m (AMSL)